Regional Weather Roundup
Issued by NWS Cleveland, OH

Home | Current Version | Previous Version | Graphics & Text | Print | Product List | Glossary On
Versions: 1 2 3 4 5 6 7 8 9 10 11 12 13 14 15 16 17 18 19 20 21 22 23 24 25 26 27 28 29 30 31 32 33 34 35 36 37 38 39 40 41 42 43 44 45 46 47 48 49 50
323
ASUS41 KCLE 171412
RWRCLE
OHIO REGIONAL WEATHER ROUNDUP
NATIONAL WEATHER SERVICE WILMINGTON, OH
1000 AM EDT THU AUG 17 2017

NOTE: "FAIR" INDICATES FEW OR NO CLOUDS BELOW 12,000 FEET WITH NO
SIGNIFICANT WEATHER AND/OR OBSTRUCTIONS TO VISIBILITY.

OHZ001>008-015>018-024>027-034-035-043-044-171500-
   NORTHWEST OHIO

CITY           SKY/WX    TMP DP  RH WIND       PRES   REMARKS
DEFIANCE       FAIR      76  72  87 S9        29.87F
FINDLAY        FAIR      80  70  71 S14       29.90F
TOLEDO EXPRESS FAIR      75  73  93 S7        29.88S
TOLEDO EXEC    FAIR      78  73  84 S9        29.89F
LIMA           FAIR      80  73  79 S12       29.91F
$$

OHZ009>014-019>023-028>033-038-089-171500-
   NORTHEAST OHIO

CITY           SKY/WX    TMP DP  RH WIND       PRES   REMARKS
CLE-HOPKINS    CLOUDY    81  70  69 S12       29.95F
CLE-LAKEFRONT  FAIR      79  66  64 S13       29.92F
CUY CO. ARPT   NOT AVBL
LORAIN-ELYRIA  FAIR      76  66  71 S10       29.94S
ASHTABULA      FAIR      75  66  73 S7        29.99F
AKRON-CANTON   PTSUNNY   79  69  71 S10       29.99F
WOOSTER        FAIR      77  72  84 S8        29.98F
MANSFIELD      PTSUNNY   75  71  87 S12       29.97S
YOUNGSTOWN     FAIR      77  66  68 S8        30.00S
$$

OHZ042-051>053-060>062-070>072-077>081-171500-
  SOUTHWEST OHIO

CITY           SKY/WX    TMP DP  RH WIND       PRES   REMARKS
CINC-COVINGTON FAIR      81  77  88 S12       29.96F
CINC-LUNKEN    FAIR      82  77  84 S8        29.95F HX  90
HAMILTON       FAIR      83  76  79 SW7       29.95F HX  91
DAYTON         FAIR      79  73  82 SW13      29.95F
WRIGHT-PAT AFB FAIR      80  77  90 SW12      29.94F
DAYTON GENERAL PTSUNNY   79  74  84 SW9       29.95F
WILMINGTON     PTSUNNY   80  76  87 SW10      29.97F
$$

OHZ036-037-039>041-045>050-054>059-063>069-073>076-082>088-171500-
  CENTRAL AND SOUTHEAST OHIO

CITY           SKY/WX    TMP DP  RH WIND       PRES   REMARKS
COLUMBUS       LGT RAIN  78  76  93 SW10      29.97S
OSU AIRPORT    PTSUNNY   77  75  93 S9        29.96F
BOLTON FIELD   PTSUNNY   73  73 100 S7        29.98F FOG
RICKENBACK AFB PTSUNNY   77  74  89 S8        29.96F
NEWARK         FAIR      77  72  84 S3        29.97F
MARION         FAIR      76  68  76 S12       29.95F
LANCASTER      PTSUNNY   80  74  81 SW3       29.98F
ZANESVILLE     FAIR      78  72  81 S8        29.99F
NEW PHILLY     FAIR      76  72  87 SE6       29.99F
$$




USA.gov is the U.S. government's official web portal to all federal, state and local government web resources and services.